Weather History for Omaha, NE

Change the Weather History Date:

Saturday, December 31, 2011

  Actual Average Record
Temperature  
Mean Temperature 42 °F 24 °F  
Max Temperature 52 °F 33 °F 60 °F (1891)
Min Temperature 31 °F 14 °F -12 °F (1884)
Degree Days  
Heating Degree Days 23 42  
Month to date heating degree days 1073 1209  
Since 1 July heating degree days 2166 2479  
Cooling Degree Days 0 0  
Month to date cooling degree days 0 0  
Year to date cooling degree days 1378 1113  
Moisture  
Dew Point 31 °F    
Average Humidity 68    
Maximum Humidity 92    
Minimum Humidity 44    
Precipitation  
Precipitation 0.06 in 0.02 in 1.59 in (1931)
Month to date precipitation 1.71 1.04  
Year to date precipitation 28.70 30.62  
Snow  
Snow T in 0.20 in - ()
Month to date snowfall 6.3 6.2  
Since 1 July snowfall 7.6 9.0  
Snow Depth 0.00 in    
Sea Level Pressure  
Sea Level Pressure 29.71 in    
Wind  
Wind Speed 16 mph (West)    
Max Wind Speed 35 mph    
Max Gust Speed 43 mph    
Visibility 10 miles    
Events Rain , Snow    
T = Trace of Precipitation, MM = Missing Value Source: NWS Daily Summary

Daily Weather History Graph

Daily Weather History Graph

Search for Another Location

Airport:

Trip Planner

Search our weather history database for the weather conditions in past years. The results will help you decide how hot, cold, wet, or windy it might be!

Date:

Astronomy

Dec. 31, 2011 Rise Set
Actual Time 7:49 AM CST 5:03 PM CST
Civil Twilight 7:18 AM CST 5:35 PM CST
Nautical Twilight 6:43 AM CST 6:09 PM CST
Astronomical Twilight 6:09 AM CST 6:43 PM CST
Moon 11:30 AM CST (12/31) No Moon Set
Length of Visible Light 10h 17m
Length of Day
9h 14m
Waxing Crescent, 45% of the Moon is Illuminated
Dec 31
Waxing Crescent
Jan 1
First Quarter
Jan 9
Full
Jan 16
Last Quarter
Jan 23
New

Hourly Weather History & Observations

Time (CST) Temp. Windchill Dew Point Humidity Pressure Visibility Wind Dir Wind Speed Gust Speed Precip Events Conditions
12:52 AM 32.0 °F 24.2 °F 28.9 °F 88% 29.84 in 10.0 mi SSE 9.2 mph - N/A   Mostly Cloudy
1:52 AM 32.0 °F 24.8 °F 28.9 °F 88% 29.82 in 10.0 mi SSE 8.1 mph - N/A   Mostly Cloudy
2:52 AM 34.0 °F 26.0 °F 30.0 °F 85% 29.80 in 10.0 mi SSE 10.4 mph - N/A   Mostly Cloudy
3:52 AM 35.6 °F 26.6 °F 30.2 °F 81% 29.75 in 10.0 mi SSE 13.8 mph - N/A   Mostly Cloudy
4:52 AM 35.6 °F 26.6 °F 30.2 °F 81% 29.71 in 10.0 mi SSE 13.8 mph - N/A   Mostly Cloudy
5:52 AM 35.6 °F 27.5 °F 28.4 °F 75% 29.67 in 10.0 mi SSE 11.5 mph - N/A   Mostly Cloudy
6:52 AM 36.0 °F 26.7 °F 28.0 °F 73% 29.65 in 10.0 mi SSE 15.0 mph - N/A   Scattered Clouds
7:52 AM 36.0 °F 26.7 °F 28.0 °F 73% 29.64 in 10.0 mi SSE 15.0 mph - N/A   Mostly Cloudy
8:52 AM 39.2 °F 30.2 °F 28.4 °F 65% 29.60 in 10.0 mi South 17.3 mph - N/A   Mostly Cloudy
9:52 AM 42.1 °F 32.8 °F 27.0 °F 55% 29.60 in 10.0 mi South 21.9 mph 29.9 mph N/A   Mostly Cloudy
10:52 AM 46.0 °F 38.5 °F 28.0 °F 50% 29.54 in 10.0 mi SSE 19.6 mph - N/A   Mostly Cloudy
11:52 AM 48.0 °F - 28.9 °F 48% 29.50 in 10.0 mi SSE 11.5 mph 25.3 mph N/A   Mostly Cloudy
12:52 PM 48.2 °F - 28.4 °F 46% 29.46 in 10.0 mi SE 12.7 mph 18.4 mph N/A   Mostly Cloudy
1:52 PM 48.9 °F - 30.9 °F 50% 29.50 in 10.0 mi NW 5.8 mph - N/A   Mostly Cloudy
2:52 PM 52.0 °F - 30.9 °F 45% 29.52 in 10.0 mi NW 9.2 mph - N/A   Mostly Cloudy
3:52 PM 48.0 °F - 30.0 °F 50% 29.56 in 10.0 mi NW 15.0 mph - N/A   Scattered Clouds
4:52 PM 44.6 °F 38.4 °F 30.2 °F 57% 29.58 in 10.0 mi NW 12.7 mph - N/A   Scattered Clouds
5:52 PM 42.1 °F 32.3 °F 30.9 °F 65% 29.68 in 10.0 mi WNW 24.2 mph 29.9 mph N/A   Mostly Cloudy
6:32 PM 37.4 °F 26.6 °F 30.2 °F 75% 29.69 in 10.0 mi NW 21.9 mph 29.9 mph N/A   Overcast
6:52 PM 37.0 °F 26.4 °F 32.0 °F 82% 29.72 in 7.0 mi NW 20.7 mph 28.8 mph 0.02 in Rain Light Rain
7:52 PM 36.0 °F 25.3 °F 36.0 °F 100% 29.79 in 6.0 mi NW 19.6 mph - 0.03 in Rain , Snow Light Rain
8:52 PM 37.0 °F 25.6 °F 36.0 °F 96% 29.84 in 8.0 mi NW 24.2 mph 34.5 mph 0.00 in Rain , Snow Light Rain
9:03 PM 37.4 °F 26.6 °F 35.6 °F 93% 29.83 in 8.0 mi NW 21.9 mph 35.7 mph 0.01 in Rain , Snow Light Rain
9:38 PM 37.4 °F 25.6 °F 37.4 °F 100% 29.84 in 10.0 mi NW 26.5 mph 35.7 mph 0.01 in Rain , Snow Light Rain
9:52 PM 37.9 °F 26.6 °F 37.0 °F 97% 29.87 in 10.0 mi NW 25.3 mph 35.7 mph 0.01 in Rain Light Rain
9:59 PM 39.2 °F 27.8 °F 37.4 °F 93% 29.85 in 10.0 mi NNW 27.6 mph 38.0 mph 0.00 in   Overcast
10:39 PM 39.2 °F 27.6 °F 33.8 °F 81% 29.89 in 10.0 mi NNW 28.8 mph 39.1 mph 0.00 in   Mostly Cloudy
10:52 PM 39.2 °F 28.7 °F 32.0 °F 75% 29.90 in 10.0 mi NNW 23.0 mph 33.4 mph N/A   Mostly Cloudy
11:52 PM 39.0 °F 28.8 °F 30.0 °F 70% 29.96 in 10.0 mi NNW 21.9 mph 38.0 mph N/A   Mostly Cloudy